TimeCDT,TemperatureF,Dew PointF,Humidity,Sea Level PressureIn,VisibilityMPH,Wind Direction,Wind SpeedMPH,Gust SpeedMPH,PrecipitationIn,Events,Conditions,WindDirDegrees,DateUTC
12:15 AM,69.8,68.0,94,29.98,10.0,SE,10.4,-,0.01,Rain,Light Rain,130,2013-06-17 05:15:00
12:35 AM,69.8,69.8,100,29.97,10.0,SSE,12.7,-,0.01,,Clear,150,2013-06-17 05:35:00
12:55 AM,69.8,68.0,94,29.96,10.0,SSE,12.7,18.4,0.01,,Clear,150,2013-06-17 05:55:00
1:15 AM,68.0,68.0,100,29.92,10.0,SSE,13.8,-,N/A,,Clear,160,2013-06-17 06:15:00
1:35 AM,68.0,68.0,100,29.91,10.0,SSE,13.8,-,N/A,,Clear,160,2013-06-17 06:35:00
1:55 AM,68.0,68.0,100,29.90,10.0,SSE,11.5,-,N/A,,Clear,160,2013-06-17 06:55:00
2:15 AM,68.0,68.0,100,29.89,10.0,SSE,11.5,-,N/A,,Clear,160,2013-06-17 07:15:00
2:35 AM,69.8,68.0,94,29.89,10.0,SSE,11.5,-,N/A,,Clear,160,2013-06-17 07:35:00
2:55 AM,69.8,68.0,94,29.90,10.0,South,9.2,-,N/A,,Clear,170,2013-06-17 07:55:00
3:15 AM,69.8,68.0,94,29.91,10.0,South,6.9,-,N/A,,Clear,180,2013-06-17 08:15:00
3:35 AM,69.8,69.8,100,29.90,10.0,South,8.1,-,N/A,,Clear,180,2013-06-17 08:35:00
3:55 AM,69.8,69.8,100,29.90,10.0,South,9.2,-,N/A,,Clear,180,2013-06-17 08:55:00
4:15 AM,71.6,69.8,94,29.91,10.0,SSW,8.1,-,N/A,,Clear,200,2013-06-17 09:15:00
4:35 AM,69.8,66.2,88,30.01,7.0,NW,18.4,31.1,0.02,Rain,Heavy Rain,320,2013-06-17 09:35:00
4:55 AM,64.4,64.4,100,30.02,3.0,NW,11.5,17.3,0.38,Rain,Heavy Rain,310,2013-06-17 09:55:00
5:15 AM,64.4,64.4,100,29.99,3.0,North,9.2,18.4,0.35,Rain-Thunderstorm,Heavy Thunderstorms and Rain,360,2013-06-17 10:15:00
5:35 AM,64.4,64.4,100,29.97,10.0,North,6.9,18.4,0.38,Rain-Thunderstorm,Light Thunderstorms and Rain,10,2013-06-17 10:35:00
5:55 AM,62.6,62.6,100,29.96,10.0,North,6.9,-,0.40,Rain-Thunderstorm,Rain,10,2013-06-17 10:55:00
6:15 AM,62.6,62.6,100,29.97,7.0,Calm,Calm,-,0.04,Rain-Thunderstorm,Thunderstorms and Rain,0,2013-06-17 11:15:00
6:35 AM,62.6,62.6,100,29.96,3.0,Calm,Calm,-,0.10,Rain,Rain,0,2013-06-17 11:35:00
6:55 AM,64.4,64.4,100,29.96,5.0,South,4.6,-,0.17,Rain,Rain,190,2013-06-17 11:55:00
7:15 AM,64.4,64.4,100,29.96,7.0,SSW,6.9,-,0.05,Rain,Rain,200,2013-06-17 12:15:00
7:35 AM,64.4,64.4,100,29.96,10.0,SSE,6.9,-,0.09,Rain,Rain,160,2013-06-17 12:35:00
7:55 AM,64.4,64.4,100,29.93,7.0,SE,6.9,-,0.13,Rain,Rain,140,2013-06-17 12:55:00
8:15 AM,64.4,64.4,100,29.90,10.0,SSE,13.8,-,0.05,Rain-Thunderstorm,Rain,150,2013-06-17 13:15:00
8:35 AM,64.4,64.4,100,29.84,10.0,SE,24.2,28.8,0.07,Rain,Light Rain,140,2013-06-17 13:35:00
8:55 AM,64.4,64.4,100,29.98,10.0,WNW,11.5,28.8,0.07,,Overcast,300,2013-06-17 13:55:00
9:15 AM,64.4,64.4,100,29.98,10.0,North,3.5,-,N/A,,Overcast,350,2013-06-17 14:15:00
9:35 AM,66.2,66.2,100,29.98,10.0,NNE,3.5,-,N/A,,Scattered Clouds,20,2013-06-17 14:35:00
9:55 AM,68.0,68.0,100,29.96,10.0,Calm,Calm,-,N/A,,Scattered Clouds,0,2013-06-17 14:55:00
10:15 AM,69.8,69.8,100,29.96,10.0,Calm,Calm,-,N/A,,Scattered Clouds,0,2013-06-17 15:15:00
10:35 AM,71.6,71.6,100,29.97,10.0,NE,3.5,-,N/A,,Scattered Clouds,50,2013-06-17 15:35:00
10:55 AM,73.4,71.6,94,29.99,10.0,Calm,Calm,-,N/A,,Mostly Cloudy,0,2013-06-17 15:55:00
11:15 AM,73.4,69.8,88,29.99,10.0,Calm,Calm,-,N/A,,Mostly Cloudy,0,2013-06-17 16:15:00
11:35 AM,73.4,71.6,94,30.00,10.0,WNW,3.5,-,N/A,,Overcast,300,2013-06-17 16:35:00
11:55 AM,73.4,71.6,94,30.00,10.0,Calm,Calm,-,N/A,,Mostly Cloudy,0,2013-06-17 16:55:00
12:15 PM,75.2,71.6,89,30.00,10.0,Calm,Calm,-,N/A,,Scattered Clouds,0,2013-06-17 17:15:00
12:35 PM,77.0,77.0,100,29.99,10.0,Calm,Calm,-,N/A,,Scattered Clouds,0,2013-06-17 17:35:00
12:55 PM,77.0,73.4,89,29.98,10.0,South,4.6,-,N/A,,Scattered Clouds,190,2013-06-17 17:55:00
1:15 PM,77.0,71.6,83,29.97,10.0,SW,8.1,-,N/A,,Scattered Clouds,230,2013-06-17 18:15:00
1:35 PM,78.8,73.4,83,29.96,10.0,WSW,5.8,-,N/A,,Scattered Clouds,250,2013-06-17 18:35:00
1:55 PM,80.6,71.6,74,29.95,10.0,SSW,5.8,-,N/A,,Scattered Clouds,210,2013-06-17 18:55:00
2:15 PM,80.6,71.6,74,29.95,10.0,Calm,Calm,-,N/A,,Mostly Cloudy,0,2013-06-17 19:15:00
2:35 PM,80.6,73.4,79,29.95,10.0,WSW,6.9,-,N/A,,Mostly Cloudy,250,2013-06-17 19:35:00
2:55 PM,82.4,73.4,74,29.94,10.0,West,6.9,-,N/A,,Mostly Cloudy,270,2013-06-17 19:55:00
3:15 PM,82.4,71.6,70,29.94,10.0,WSW,6.9,-,N/A,,Mostly Cloudy,240,2013-06-17 20:15:00
3:35 PM,82.4,69.8,66,29.94,10.0,West,11.5,-,N/A,,Scattered Clouds,280,2013-06-17 20:35:00
3:55 PM,82.4,69.8,66,29.94,10.0,West,12.7,16.1,N/A,,Scattered Clouds,280,2013-06-17 20:55:00
4:15 PM,82.4,69.8,66,29.94,10.0,WNW,6.9,-,N/A,,Mostly Cloudy,300,2013-06-17 21:15:00
4:35 PM,80.6,69.8,70,29.94,10.0,NW,9.2,16.1,N/A,,Mostly Cloudy,320,2013-06-17 21:35:00
4:55 PM,82.4,69.8,66,29.93,10.0,WNW,5.8,-,N/A,,Scattered Clouds,300,2013-06-17 21:55:00
5:15 PM,82.4,69.8,66,29.93,10.0,NW,9.2,-,N/A,,Scattered Clouds,310,2013-06-17 22:15:00
5:35 PM,82.4,68.0,62,29.94,10.0,NW,5.8,-,N/A,,Scattered Clouds,310,2013-06-17 22:35:00
5:55 PM,82.4,69.8,66,29.93,10.0,North,11.5,-,N/A,,Scattered Clouds,360,2013-06-17 22:55:00
6:15 PM,82.4,69.8,66,29.93,10.0,North,6.9,-,N/A,,Scattered Clouds,350,2013-06-17 23:15:00
6:35 PM,80.6,69.8,70,29.93,10.0,North,10.4,-,N/A,,Clear,350,2013-06-17 23:35:00
6:55 PM,80.6,68.0,65,29.93,10.0,North,8.1,-,N/A,,Clear,360,2013-06-17 23:55:00
7:15 PM,80.6,68.0,65,29.94,10.0,North,3.5,-,N/A,,Clear,360,2013-06-18 00:15:00
7:35 PM,80.6,69.8,70,29.93,10.0,North,6.9,-,N/A,,Clear,360,2013-06-18 00:35:00
7:55 PM,78.8,69.8,74,29.94,10.0,NE,4.6,-,N/A,,Clear,40,2013-06-18 00:55:00
8:15 PM,77.0,69.8,78,29.94,10.0,Calm,Calm,-,N/A,,Clear,0,2013-06-18 01:15:00
8:35 PM,73.4,68.0,83,29.96,10.0,NNE,3.5,-,N/A,,Clear,30,2013-06-18 01:35:00
8:55 PM,71.6,68.0,88,29.96,10.0,NE,3.5,-,N/A,,Scattered Clouds,50,2013-06-18 01:55:00
9:15 PM,71.6,68.0,88,29.96,10.0,NE,4.6,-,N/A,,Clear,40,2013-06-18 02:15:00
9:35 PM,69.8,68.0,94,29.96,10.0,NE,3.5,-,N/A,,Clear,40,2013-06-18 02:35:00
9:55 PM,69.8,68.0,94,29.96,10.0,Calm,Calm,-,N/A,,Clear,0,2013-06-18 02:55:00
10:15 PM,68.0,68.0,100,29.97,10.0,Calm,Calm,-,N/A,,Clear,0,2013-06-18 03:15:00
10:35 PM,68.0,64.4,88,29.99,10.0,Calm,Calm,-,N/A,,Clear,0,2013-06-18 03:35:00
10:55 PM,68.0,66.2,94,29.99,10.0,North,5.8,-,N/A,,Scattered Clouds,10,2013-06-18 03:55:00
11:15 PM,68.0,66.2,94,29.99,10.0,NNE,5.8,-,N/A,,Scattered Clouds,20,2013-06-18 04:15:00
11:35 PM,68.0,66.2,94,29.99,10.0,North,3.5,-,N/A,,Clear,360,2013-06-18 04:35:00
11:55 PM,68.0,66.2,94,30.00,10.0,North,4.6,-,N/A,,Clear,10,2013-06-18 04:55:00